星链-1174 (STARLINK-1174 )

导读 | 星芒AI

STARLINK-1174 是 SpaceX Starlink 项目中的一颗低轨通信卫星,属于第 11 批发射的星链卫星群。该卫星于 2021 年 5 月 28 日由猎鹰 9 号火箭送入近地轨道,旨在为全球用户提供高速互联网服务。它运行在约 550 公里的轨道高度,设计寿命为 5 至 7 年,具备先进的相控阵天线和激光通信技术,支持高效数据传输。作为 Starlink 卫星互联网系统的一部分,STARLINK-1174 有助于提升全球网络覆盖,特别是在偏远和网络基础设施薄弱的地区。

基本信息
目录编号:
45075
目录名称:
STARLINK-1174
国际标识:
2020-006AH
轨道中心:
EARTH
卫星名称:
星链-1174
卫星全名:
星链-1174 (STARLINK-1174 )
卫星状态:
已陨落 最后检测时间 2025-05-13
发射日期:
2020-01-29 UTC
国别 :
美国 (US)
星等 :
--
轨道信息
数据来源 国际轨道数据
星历时间: 2025-05-13T17:28:19+0800
轨道信息已过期216天
半长轴: 6526.511km
偏心率: 0.0005868
轨道倾角: 53.030°
近地点辐角 272.574°
升交点赤经 128.082°
平近点角 242.275°
近地点: 144.546km
远地点: 152.206km
周期: 87.454分钟
每日圈数: 16.465737
详细信息
固有亮度:
5
最大亮度:
2.5
卫星平台:
Starlink V1.0
覆盖范围:
全球
运营商:
太空探索技术公司
运营商所在国:
美国
制造商(研发单位):
太空探索技术公司
制造商所在国:
美国
使用方式:
暂无
卫星简介
星链(Starlink)计划是由太空探索技术公司(SpaceX)提出的一个巨型低轨卫星互联网星座项目,计划在2019年至2024年间在太空搭建由约1.2万颗卫星组成的“星链”网络,其中1584颗将部署在地球上空550千米处的近地轨道,并从2020年开始工作。该卫星仍在工作。